Location: Harmony
(38.4073°N, 88.7928°W)
Time: 02:09:45
(UTC+00:00)

Daily predictions for brighter satellites

Satellite Brightness Start Highest point End
(mag) Time Altitude Azimuth Time Altitude Azimuth Time Altitude Azimuth
Resurs 1-3 4.4 01:35:05 10° SE 01:39:03 35° ENE 01:43:03 10° N
Cosmos 2298 Rocket 4.2 01:35:34 10° NNW 01:40:52 63° ENE 01:46:08 10° SSE
Cosmos 1758 Rocket 3.8 01:36:46 10° SSW 01:41:03 76° W 01:45:22 10° N
Cosmos 1125 Rocket 3.9 01:37:10 10° N 01:42:20 49° ENE 01:47:27 10° SE
NOSS 3-2 (A) 4.3 01:35:26 10° NW 01:43:16 81° WSW 01:52:00 10° SSE
deb Kosmos-1763 3.9 01:40:51 10° SSW 01:44:20 74° ESE 01:47:51 10° NNE
Cosmos 1869 3.3 01:48:01 10° N 01:51:52 63° E 01:55:39 10° SSE
COSMOS 2406 3.4 01:48:20 10° S 01:53:45 49° ESE 01:59:12 10° NE
Cosmos 2058 3.7 01:50:40 10° SSE 01:54:21 32° E 01:58:05 10° NNE
Cosmos 1825 2.4 01:52:03 10° SSE 01:55:39 48° E 01:59:17 10° NNE
Meteor 1-27 4.4 01:50:26 10° N 01:56:12 83° W 02:02:00 10° S
NOSS 3-4 (A) 3.4 01:50:57 10° SW 01:56:43 85° WNW 02:02:51 10° NNE
NOSS 3-4 (C) 3.4 01:51:04 10° SSW 01:56:49 86° WNW 02:02:57 10° NNE
USA 306 3.0 01:52:39 10° NW 01:56:56 74° NE 02:00:51 12° SE
SAR-Lupe-1 4.3 01:54:10 10° N 01:57:44 74° WNW 02:01:17 10° SSW
SAR-Lupe-4 3.6 01:54:35 10° NNE 01:58:10 85° WNW 02:01:44 10° SSW
OBJECT-B 1.7 01:57:13 10° S 02:00:18 48° W 02:03:25 10° NNW
SL-19 R/B 4.4 01:58:29 10° S 02:01:36 61° WSW 02:05:11 10° NNW
Cosmos 405 Rocket 3.6 01:58:36 10° SSW 02:02:22 54° W 02:06:16 10° N
SJ-6B 3.2 01:59:16 10° S 02:02:58 61° W 02:06:40 10° NNW
Atlas Centaur 2 3.1 02:02:23 10° S 02:03:48 12° SSE 02:04:35 11° SSE
USA 32 4.0 01:59:40 10° N 02:04:55 73° E 02:10:08 10° S
ATLAS 2AS CENTAUR R/B 3.1 01:57:43 10° SSW 02:05:26 62° ESE 02:13:08 10° NE
Cosmos 1656 3.7 02:00:41 10° NNW 02:06:20 68° ENE 02:11:34 11° SSE
Centaur D-1AR AC-39 3.9 02:06:09 10° SSW 02:06:53 10° SSW 02:07:33 10° S
Cosmos 1980 Rocket 3.8 02:04:14 10° N 02:08:14 19° NE 02:12:06 10° E
Cosmos 1437 Rocket 2.6 02:06:16 10° N 02:10:07 77° E 02:14:00 10° SSE
NOSS 3-2 (C) 4.2 02:02:29 10° NNW 02:10:20 87° WSW 02:18:50 11° SSE
Resurs 01 Rocket 2.1 02:08:50 13° SE 02:12:36 46° ENE 02:16:51 10° N
Cosmos 1408 4.0 02:12:59 10° SSW 02:16:26 40° W 02:19:54 10° N
Cosmos 1437 3.0 02:15:22 10° N 02:17:58 37° ENE 02:19:12 23° SE
NOSS 2 (A) 4.0 02:17:18 10° NNW 02:19:49 64° NE 02:20:51 28° SE
Cosmos-2242 4.4 02:17:50 10° NNW 02:21:48 39° W 02:25:45 10° SSW
RESURS DK-1 3.1 02:18:10 10° S 02:21:49 31° ESE 02:25:30 10° NE
Cosmos 2098 Rocket 3.6 02:22:42 19° E 02:22:54 19° E 02:25:11 10° NE
ATLAS 3B R/B 4.2 02:21:21 10° NNW 02:27:11 26° NE 02:32:46 11° E
USA 267 3.7 02:22:32 10° ENE 02:28:31 37° SE 02:34:28 10° SSW
CENTAUR R/B 3.7 02:20:53 10° NW 02:29:09 60° WSW 02:37:50 10° SSE
Cosmos 1633 3.2 02:29:09 24° SE 02:30:34 34° E 02:33:51 10° NNE
SPOT 1/Viking Rocket 4.0 02:28:26 19° SE 02:31:46 44° ENE 02:36:41 10° N
MetOp-B 4.4 02:28:46 18° SE 02:32:32 53° ENE 02:37:44 10° N
Cosmos 44 Rocket 3.4 02:29:37 10° SSW 02:34:47 85° ESE 02:40:02 10° NNE
Meteor 2-2 Rocket 4.2 02:29:33 10° N 02:35:25 81° E 02:40:10 15° SSE
ARIANE 5 R/B 4.0 02:38:33 20° E 02:40:10 25° ENE 02:43:51 10° NNE
SL-16 R/B 4.5 02:39:29 10° NE 02:40:20 10° NE 02:41:10 10° NE
ERS-2 3.5 02:37:07 10° N 02:40:33 40° WNW 02:43:58 10° SW
Ariane Rocket 3.6 02:37:52 10° S 02:42:50 54° W 02:47:49 10° NNW
SPOT 5 4.1 02:44:08 19° E 02:45:19 22° ENE 02:48:37 10° NNE
Cosmos 2180 Rocket 4.4 02:40:20 10° N 02:46:32 80° E 02:51:12 18° S
ATLAS 2A CENTAUR R/B 4.4 02:31:25 10° WSW 02:46:34 33° SSW 02:49:13 24° SSE
SEDSat Delta rocket 3.7 02:46:09 10° SW 02:49:39 28° S 02:49:48 28° SSE
CZ-2C R/B 3.6 02:45:50 10° NNE 02:50:23 71° ESE 02:53:38 18° S
Cosmos 1242 Rocket 3.5 02:48:01 10° NNW 02:51:27 44° W 02:53:50 18° SSW
OAO 2 Rocket 3.5 02:46:35 10° W 02:51:28 52° S 02:53:28 32° SE
CARTOSAT-1 4.2 02:51:42 31° ESE 02:53:03 40° ENE 02:57:06 10° N
IRIS 4.5 02:50:56 10° WNW 02:53:46 71° NNE 02:55:21 32° E
Cosmos 2221 2.5 02:49:31 10° N 02:53:50 85° W 02:56:12 26° S
USA 307 3.9 02:52:01 10° WNW 02:55:56 36° SW 02:57:40 25° S
Cosmos 371 Rocket 4.1 02:59:29 10° N 03:03:53 34° ENE 03:05:07 30° E
ERBS 3.5 03:02:26 10° NNW 03:05:18 29° NE 03:05:39 28° NE
Terra 3.0 03:04:43 25° E 03:05:42 27° ENE 03:09:42 10° NNE
Cosmos 1697 Rocket 2.8 03:00:52 10° NNW 03:06:33 76° WSW 03:09:29 30° S
GRACE-FO 1 4.4 03:03:29 10° N 03:07:06 77° E 03:07:43 58° SSE
GRACE-FO 2 4.4 03:03:56 10° N 03:07:33 78° E 03:08:09 58° SSE
Hubble Space Telescope 2.7 03:05:43 10° SW 03:07:15 17° SSW 03:07:15 17° SSW
Cosmos 1606 2.7 03:06:25 10° N 03:10:12 75° W 03:11:14 45° S
Cosmos 2082 Rocket 2.4 03:05:01 10° SSW 03:10:36 71° WNW 03:16:16 10° NNE
USA 308 4.4 03:09:10 10° WNW 03:12:40 25° SW 03:13:51 22° SSW
SPOT 3 Rocket 4.1 03:09:28 21° S 03:12:52 55° W 03:18:00 10° NNW
Cosmos 2278 4.0 03:08:59 10° NNW 03:14:30 52° ENE 03:16:22 37° ESE
Cosmos 1833 Rocket 4.5 03:09:31 10° WSW 03:14:32 32° WNW 03:19:34 10° N
Meteor 2-15 4.4 03:09:19 10° N 03:15:22 64° E 03:17:44 37° SSE
BREEZE-M R/B 3.5 03:11:33 10° SSW 03:17:23 38° SSE 03:17:23 38° SSE
Cosmos 2195 Rocket 4.5 03:16:45 34° SSE 03:19:20 61° E 03:25:21 10° NNE
Cosmos 1782 4.2 03:20:22 10° NNE 03:23:15 25° ENE 03:23:15 25° ENE
Cosmos 2151 2.8 03:23:49 54° S 03:24:44 90° E 03:29:00 10° N
Cosmos 2360 Rocket 4.4 03:28:46 10° NNE 03:30:42 12° NE 03:32:37 10° ENE
Meteor 2-15 Rocket 4.4 03:25:07 10° N 03:31:11 67° E 03:32:59 45° SE
Centaur D AC-29 4.2 03:25:57 10° W 03:31:41 13° WSW 03:34:59 10° SSW
Cosmos 1092 Rocket 3.9 03:29:20 34° S 03:32:18 83° E 03:38:36 10° N
GP-B 2.9 03:30:01 10° N 03:34:28 79° E 03:34:52 71° SSE
Meteor 2-3 Rocket 3.6 03:36:27 41° S 03:38:30 88° ESE 03:44:13 10° N
Cosmos 332 Rocket 4.3 03:34:35 10° N 03:39:17 45° ENE 03:39:38 44° E
Cosmos 1680 Rocket 4.2 03:40:32 38° E 03:40:32 38° E 03:44:45 10° NE
Cosmos 2369 4.1 03:36:01 10° NNW 03:41:30 54° WSW 03:43:19 38° SSW
ERS-1 Rocket 2.9 03:40:52 60° SSE 03:41:50 89° WSW 03:46:53 10° NNW
Spot 2 Rocket 3.9 03:41:46 41° SSW 03:43:18 59° W 03:48:21 10° NNW
Cosmos 1151 Rocket 3.9 03:41:14 10° N 03:44:42 36° ENE 03:44:42 36° ENE
Resurs 01 Rocket 4.2 03:46:50 10° SW 03:49:19 15° W 03:51:48 10° WNW
Okean 3 Rocket 4.1 03:50:13 46° ENE 03:50:13 46° ENE 03:53:49 10° NNE
OAO 1 Rocket 4.5 03:45:14 10° W 03:50:12 60° SSW 03:50:12 60° SSW
Cosmos 2026 Rocket 4.0 03:49:08 41° S 03:51:33 87° W 03:57:55 10° N
BREEZE-M DEB (TANK) 3.4 03:48:07 10° NW 03:51:54 65° NE 03:55:45 32° ESE
BREEZE M DEB (TANK) 3.6 03:48:56 10° WSW 03:52:21 84° NNW 04:11:54 10° ENE
Cosmos 1980 Rocket 2.4 03:47:06 10° NNW 03:52:39 61° WSW 03:53:52 49° SSW
Cosmos 2322 Rocket 3.2 03:55:15 10° N 04:00:16 32° ENE 04:00:59 31° ENE
Cosmos 158 Rocket 4.5 03:58:13 33° SW 04:00:20 56° WNW 04:05:28 10° N
H-2A R/B 4.0 03:56:35 10° NNE 03:59:53 53° NNE 03:59:53 53° NNE
Cosmos 1271 Rocket 3.4 03:59:58 10° NNW 04:03:10 55° NNW 04:03:10 55° NNW
ISS -1.3 04:08:31 10° NNW 04:10:34 20° N 04:10:34 20° N
USA 267 3.7 04:05:14 10° NE 04:11:39 59° NW 04:18:02 10° WSW
ARIANE 5 R/B 4.1 04:16:06 28° WSW 04:16:29 28° W 04:20:21 10° NW
Meteor 2-21 4.3 04:16:06 71° SSE 04:16:48 82° E 04:23:00 10° N
Cosmos 2292 Rocket 4.2 04:16:19 71° SSW 04:16:57 82° W 04:23:49 10° N
ATLAS 3B R/B 2.8 04:11:22 10° NW 04:18:32 75° WSW 04:20:00 59° S
SPOT 5 4.1 04:23:22 29° W 04:23:22 29° W 04:27:02 10° NW
SL-16 R/B 2.2 04:19:52 10° NNW 04:25:32 68° ENE 04:25:32 68° ENE
Cosmos 304 Rocket 4.2 04:22:42 10° NNW 04:26:50 57° WNW 04:26:50 57° WNW
Cosmos 2219 Rocket 4.4 04:25:16 10° NNE 04:27:50 13° NE 04:29:34 12° ENE
Cosmos 1655 Rocket 4.0 04:32:56 69° E 04:33:01 69° E 04:39:21 10° NNE
Cosmos 1553 Rocket 3.8 04:27:00 10° N 04:33:06 83° W 04:33:26 79° SSW
Cosmos 2266 Rocket 4.0 04:37:31 64° ENE 04:37:31 64° ENE 04:43:19 10° NNE
Meteor 1-10 Rocket 4.4 04:34:02 10° N 04:39:04 62° NE 04:39:04 62° NE
COSMOS 2455 4.3 04:44:29 24° ENE 04:44:29 24° ENE 04:47:20 10° NE
USA 234 3.7 04:41:00 41° E 04:42:58 54° NE 04:49:19 10° NW
Terra 3.3 04:43:36 29° W 04:43:36 29° W 04:47:28 10° NW
Meteor 2-16 Rocket 4.3 04:50:10 86° WNW 04:50:10 86° WNW 04:56:13 10° N
ALOS 2 4.3 04:56:16 28° NNE 04:56:16 28° NNE 04:58:50 10° N
S3M 4.0 04:54:09 10° N 05:00:32 77° W 05:00:35 77° W
Cosmos 2056 Rocket 3.9 04:56:13 10° NNW 05:00:39 61° N 05:00:39 61° N
Cosmos 1833 4.4 05:07:05 67° NNE 05:07:05 67° NNE 05:12:04 10° NNE
Cosmos 2333 Rocket 3.4 05:04:33 10° N 05:09:37 33° ENE 05:09:38 33° ENE
Cosmos 2360 Rocket 2.5 05:10:00 10° NNW 05:14:45 63° N 05:14:45 63° N
Cosmos 2297 Rocket 4.4 05:37:04 14° ENE 05:37:04 14° ENE 05:38:29 10° ENE
Cosmos 2322 Rocket 3.6 05:39:15 10° NW 05:42:47 29° WNW 05:42:47 29° WNW
Cosmos 2227 Rocket 4.5 05:47:43 13° ENE 05:47:43 13° ENE 05:48:57 10° ENE
Cosmos 2285 Rocket 4.1 05:52:32 10° NNW 05:58:13 72° N 05:58:13 72° N
COSMOS 2428 3.2 06:01:32 10° NNW 06:06:19 56° NNE 06:06:19 56° NNE
SL-16 R/B 4.4 06:05:52 10° WNW 06:07:23 13° W 06:07:23 13° W
Cosmos 2219 Rocket 2.7 06:06:59 10° NNW 06:11:15 54° NNW 06:11:15 54° NNW
Thor Agena Rocket 4.4 06:11:41 10° N 06:15:19 47° N 06:15:19 47° N
USA 234 4.3 06:28:20 32° W 06:28:20 32° W 06:32:10 10° WNW
COSMOS 2455 3.7 06:27:35 40° WNW 06:27:54 40° NW 06:33:33 10° NNE
Cosmos 2219 4.2 06:34:37 39° ENE 06:34:37 39° ENE 06:38:52 10° NE
CZ-3B R/B 4.4 06:32:12 10° NW 06:33:35 17° NW 06:33:35 17° NW
Cosmos 1709 Rocket 4.2 06:37:29 61° ENE 06:37:29 61° ENE 06:43:26 10° NNE
NOSS 0 Rocket 4.1 06:32:27 10° NNW 06:38:37 66° ENE 06:38:37 66° ENE
Cosmos 1745 Rocket 4.1 06:45:31 64° NW 06:45:31 64° NW 06:51:14 10° N
ATLAS 5 CENTAUR R/B 2.7 06:47:48 10° NNW 06:53:33 63° NE 06:54:21 58° E
Cosmos 2333 Rocket 3.8 06:48:49 10° NW 06:51:36 25° WNW 06:51:36 25° WNW
Meteor 1-11 Rocket 4.1 06:56:39 58° ENE 06:56:39 58° ENE 07:01:27 10° NNE
Lacrosse 5 3.0 06:57:57 38° ENE 06:57:57 38° ENE 07:01:10 10° NE
SL-16 R/B 3.6 07:00:09 31° ESE 07:02:08 39° ENE 07:07:48 10° N
Cosmos 1980 3.9 06:57:10 10° NNW 07:02:27 68° NE 07:02:27 68° NE
Resurs 1-4 Rocket 2.9 06:58:54 10° NNE 07:03:26 43° E 07:03:26 43° E
CZ-4 R/B 4.5 07:12:18 10° N 07:16:20 54° NNW 07:16:20 54° NNW
Cosmos 2297 Rocket 2.4 07:18:52 61° NW 07:18:52 61° NW 07:24:09 10° NNE
Cosmos 2074 Rocket 4.4 07:23:14 49° ESE 07:24:07 53° E 07:30:08 10° NNE
NPP 4.0 07:18:56 10° NNE 07:24:07 54° E 07:24:07 54° E
Cosmos 2237 Rocket 2.3 07:21:23 10° NNW 07:26:22 68° NW 07:26:22 68° NW
ASTEX 1 3.9 07:29:44 54° NNW 07:29:44 54° NNW 07:33:35 10° N
Cosmos 2227 Rocket 2.3 07:29:32 68° NW 07:29:32 68° NW 07:34:59 10° NNE
Meteor 1-13 Rocket 4.3 07:24:47 10° NNW 07:30:08 68° WNW 07:30:08 68° WNW
USA 229 DEB 4.1 07:23:41 10° NW 07:30:34 52° WSW 07:30:34 52° WSW
ADEOS Rocket 3.6 07:29:11 35° ESE 07:30:57 46° ENE 07:36:10 10° N
USA 229 4.1 07:23:46 10° NW 07:30:43 53° WSW 07:30:43 53° WSW
Cosmos 1743 4.3 07:39:45 34° N 07:39:45 34° N 07:42:00 10° N
CZ-2D R/B 2.0 07:36:56 10° NNE 07:42:21 82° WNW 07:42:22 82° WNW
Cosmos 2181 Rocket 3.8 07:36:29 10° N 07:42:49 76° W 07:43:18 71° SW
ADEOS II 2.6 07:39:08 10° NNE 07:44:13 48° E 07:44:45 46° ESE
IRS-1D 4.5 07:43:24 10° NNE 07:47:59 36° E 07:48:42 34° ESE
Cosmos 614 Rocket 3.9 07:50:06 74° ESE 07:50:09 74° ESE 07:55:21 10° NNE
SL-16 R/B 2.7 07:45:24 10° NNW 07:50:58 55° ENE 07:53:47 28° SE
Meteor 1-23 Rocket 4.1 07:47:43 10° N 07:53:26 83° W 07:53:54 75° SSW
Cosmos 2263 Rocket 3.3 07:54:29 29° SE 07:55:52 33° ESE 08:00:54 10° NE
Cosmos 1975 3.8 07:57:17 43° E 07:57:17 43° E 08:00:56 10° NNE
ATLAS CENTAUR R/B 3.7 07:57:40 13° ESE 07:57:40 13° ESE 07:59:05 10° E
SL-19 R/B 4.5 07:54:30 10° NNE 08:00:39 81° ESE 08:02:07 55° S
Cosmos 2221 Rocket 3.7 07:56:49 10° N 08:01:22 71° E 08:01:25 71° E
CZ-4C R/B 4.4 07:54:47 10° NNW 08:01:27 36° NE 08:09:01 10° ESE
Cosmos 407 Rocket 4.3 08:01:06 39° SE 08:02:09 43° ESE 08:07:08 10° NNE
Cosmos 1461 3.6 08:05:09 50° ESE 08:05:09 50° ESE 08:09:27 10° NE
Cosmos 1992 Rocket 3.9 08:00:48 10° NNW 08:05:56 70° W 08:05:56 70° W
Cosmos 2344 3.8 08:04:50 38° S 08:07:31 56° ESE 08:14:49 10° NE
Meteor 1-29 4.1 08:08:26 10° NNE 08:10:46 40° NE 08:10:46 40° NE
UNK 4.2 08:14:59 48° WNW 08:14:59 48° WNW 08:18:55 10° NNW
Helios 1B rocket 3.0 08:11:30 10° N 08:14:58 48° NW 08:14:58 48° NW
Cosmos 1674 Rocket 4.0 08:13:13 10° N 08:17:35 58° E 08:18:39 45° SE
Cosmos 1238 Rocket 3.6 08:18:43 39° NE 08:18:43 39° NE 08:21:04 10° NNE
Cosmos 1842 3.3 08:18:55 10° N 08:22:21 70° N 08:22:21 70° N
Nadezhda 3 Rocket 4.0 08:16:52 10° N 08:23:16 82° E 08:26:34 31° SSE
Cosmos 2327 Rocket 4.4 08:25:51 46° SSW 08:27:50 77° W 08:34:01 10° N
BREEZE-M DEB (TANK) 3.7 08:30:27 45° NE 08:30:27 45° NE 08:32:04 10° NE
IDEFIX/ARIANE 42P 2.5 08:29:24 10° NNE 08:34:36 79° ESE 08:36:26 41° S
CBERS-1 4.0 08:29:34 10° NNE 08:34:44 82° ESE 08:36:25 44° S
Cosmos 2251 Rocket 4.3 08:36:33 33° W 08:37:30 36° WNW 08:42:23 10° N
ATLAS 5 CENTAUR R/B 3.9 08:33:16 10° WNW 08:35:47 20° W 08:35:47 20° W
Cosmos 1378 Rocket 3.4 08:34:22 10° N 08:38:45 88° E 08:39:54 49° S
Lacrosse 5 3.5 08:37:07 18° WNW 08:39:27 25° NNW 08:43:39 10° NNE
Cosmos 1908 Rocket 3.4 08:42:21 50° S 08:43:25 84° E 08:47:46 10° N
Resurs 1-4 Rocket 3.6 08:39:28 10° NNW 08:43:27 22° WNW 08:44:30 21° W
USA 215 3.9 08:38:21 10° ENE 08:44:35 45° SE 08:47:58 26° S
Cosmos 1356 Rocket 3.2 08:44:46 63° SW 08:45:16 74° W 08:49:17 10° N
SL-16 R/B 3.3 08:45:14 30° WSW 08:45:45 31° W 08:51:07 10° NW
Cosmos 1733 Rocket 4.2 08:50:26 27° W 08:50:34 27° WNW 08:54:24 10° NNW
Cosmos 1674 4.5 08:47:35 10° NNE 08:51:02 31° ENE 08:54:27 10° SE
Cosmos 2154 Rocket 4.4 08:50:40 34° WSW 08:52:46 45° WNW 08:58:41 10° N
BREEZE-M DEB (TANK) 4.3 08:45:45 22° WSW 08:53:13 65° NW 08:57:00 10° NE
SWARM C 4.4 08:53:20 70° W 08:53:20 70° W 08:56:38 10° N
SWARM A 4.1 08:53:26 68° W 08:53:26 68° W 08:56:42 10° N
Cosmos 1190 Rocket 3.9 08:51:32 37° SSW 08:53:41 85° WNW 08:59:01 10° NNE
DELTA 2 DEB (DPAF) 4.1 08:53:13 41° SSW 08:54:37 64° W 08:59:01 10° NNW
SL-8 R/B 4.0 08:53:11 35° W 08:55:03 62° NNW 08:59:50 10° NE
Cosmos 1140 Rocket 3.6 08:54:55 38° SW 08:56:50 63° WNW 09:02:03 10° NNE
IKONOS-2 4.5 08:54:52 24° SSE 08:57:23 86° E 09:01:41 10° NNW
Meteor 1-21 4.3 08:56:45 10° NNW 09:02:26 59° W 09:05:54 24° SSW
ASTRO E2 3.8 09:05:37 26° S 09:05:37 26° S 09:08:55 10° ESE
MSX 3.8 09:01:00 10° N 09:06:44 75° WNW 09:10:10 25° SSW
CZ-4C R/B 3.3 09:04:27 23° S 09:06:55 83° W 09:11:09 10° NNW
CZ-4B R/B 3.8 09:02:22 10° NNE 09:07:09 59° ESE 09:10:42 17° S
Cosmos 1954 Rocket 4.1 09:04:41 25° S 09:07:51 79° ESE 09:13:11 10° NNE
Okean 2 3.8 09:04:17 10° NNW 09:08:13 42° W 09:09:08 36° SW
Cosmos 44 4.0 09:03:50 10° NNW 09:08:59 57° NE 09:13:47 10° SE
BREEZE-M DEB (TANK) 4.3 09:06:18 10° NW 09:09:13 28° NNE 09:11:53 10° ENE
Cosmos 1844 Rocket 4.4 09:04:54 10° SSE 09:09:34 27° ESE 09:14:16 10° NE
ARIANE 5 R/B 2.6 09:06:40 10° NNE 09:11:51 81° E 09:15:40 19° S
Meteor 1-28 Rocket 4.4 09:16:25 24° W 09:16:25 24° W 09:19:12 10° NW
ADEOS Rocket 4.1 09:16:08 20° WSW 09:16:41 21° W 09:20:45 10° NW
Cosmos 1603 3.9 09:12:27 10° NNW 09:18:05 71° ENE 09:23:42 10° SSE
Milstar 3 3.9 09:15:44 19° SSW 09:18:44 26° SSE 09:24:10 10° ESE
CZ-2D R/B 3.6 09:15:34 10° NNE 09:19:33 68° ESE 09:22:36 17° S
CZ-2D R/B 4.3 09:20:32 10° NW 09:21:31 10° WNW 09:22:31 10° WNW
Cosmos 1959 Rocket 4.4 09:17:52 15° S 09:23:04 83° W 09:29:16 10° N
Cosmos 864 Rocket 4.5 09:17:39 14° S 09:23:04 86° W 09:29:23 10° N
ADEOS II 3.6 09:19:44 10° NNW 09:23:31 20° WNW 09:25:41 16° W
Spot 4 Rocket 4.5 09:19:03 10° NNE 09:24:10 61° ESE 09:29:15 10° S
Cosmos 1782 Rocket 3.6 09:23:31 24° SSW 09:25:57 59° W 09:30:16 10° N
CZ-2C R/B 4.2 09:22:50 10° NNE 09:26:16 34° E 09:29:42 10° SSE
Sich 1 Rocket 4.0 09:24:35 10° S 09:28:55 62° E 09:33:16 10° NNE
Cosmos 1805 3.2 09:26:33 17° S 09:29:30 85° E 09:33:25 10° N
SL-8 Rocket 4.1 09:24:57 18° SSW 09:29:34 59° W 09:35:39 10° N
Cosmos 2366 rocket 4.0 09:26:46 14° SSW 09:32:19 71° W 09:38:41 10° N
IRS-1C 4.4 09:27:29 10° N 09:32:39 52° WNW 09:36:26 18° SW
SL-16 R/B 3.5 09:30:46 10° WNW 09:34:33 19° W 09:35:34 18° WSW
CZ-3 R/B 4.4 09:15:06 17° SW 09:34:54 35° S 09:44:07 10° ESE
ATLAS CENTAUR R/B 1.8 09:33:49 23° WSW 09:35:44 42° NW 09:39:28 10° NNE
Cosmos 676 Rocket 4.2 09:32:40 19° SW 09:36:23 59° WNW 09:41:40 10° N
KORONAS-FOTON 3.8 09:32:50 10° NNW 09:36:44 62° W 09:40:35 10° S
Cosmos 2263 Rocket 3.2 09:36:11 17° WSW 09:39:43 33° WNW 09:44:49 10° N
Cosmos 1726 4.5 09:40:56 10° SE 09:43:52 23° E 09:46:50 10° NE
Cosmos 1707 4.2 09:41:14 10° NW 09:44:02 19° W 09:45:07 17° WSW
SL-14 R/B 4.2 09:41:13 10° N 09:45:00 50° E 09:48:48 10° SSE
PAYLOAD A 4.1 09:39:57 10° NNE 09:45:25 85° WNW 09:50:44 10° SSW
ALOS 2.7 09:45:25 10° NNE 09:50:04 62° E 09:54:40 10° S
CZ-4C R/B 3.1 09:42:57 10° NW 09:50:27 60° WSW 09:58:52 10° SSE
GEOS 3 Rocket 3.6 09:45:12 10° SSE 09:50:33 77° SW 09:55:55 10° NW
Cosmos 1741 Rocket 4.2 09:50:34 10° S 09:55:46 74° ESE 10:01:03 10° NNE
Cosmos 1733 3.5 09:52:52 12° SSW 09:56:19 50° W 10:00:04 10° N
SL-08 R/B 3.7 09:53:31 10° S 09:58:14 46° W 10:03:01 10° NNW
Cosmos 1766 3.2 09:54:41 10° SSW 09:58:31 65° W 10:02:24 10° N
Meteor 2-20 Rocket 4.4 09:52:29 10° NNW 09:58:36 70° W 10:04:42 10° S
Cosmos 1470 4.3 09:56:02 10° SSE 09:59:40 38° E 10:03:19 10° NNE
Cosmos 1763 Rocket 3.8 09:55:48 10° NNW 10:01:09 76° ENE 10:06:25 10° SSE
USA 281 3.9 09:56:02 10° SE 10:02:27 60° ENE 10:08:54 10° NNW
Cosmos 1300 Rocket 3.8 10:02:12 10° SSW 10:06:23 48° W 10:10:36 10° N
Cosmos 1727 Rocket 4.0 10:00:38 10° NNW 10:06:49 69° W 10:13:02 10° S
Meteor 1-15 Rocket 4.5 10:01:56 10° SSW 10:07:46 60° WNW 10:13:35 10° N
USA 290 2.2 10:06:41 10° NNW 10:09:56 88° ENE 10:13:10 10° SSE
Cosmos 1975 Rocket 4.0 10:09:43 10° NNW 10:13:29 28° W 10:17:13 10° SSW
Cosmos 1484 Rocket 3.1 10:09:52 10° NNE 10:13:49 71° E 10:17:47 10° S
Cosmos 1943 3.7 10:09:10 10° NW 10:14:25 38° WSW 10:19:37 10° S
Cosmos 1844 3.8 10:09:22 10° SSW 10:14:55 82° ESE 10:20:30 10° NNE
Cosmos 1340 4.0 10:13:07 10° NW 10:15:56 20° W 10:18:44 10° SW
CZ-2C R/B 2.8 10:13:15 10° N 10:17:32 40° WNW 10:21:50 10° SW
SL-24 R/B - RUBIN 2 3.6 10:14:33 10° NW 10:19:21 62° WSW 10:23:41 10° SSE
Cosmos 1934 Rocket 4.5 10:13:22 10° S 10:19:23 65° E 10:25:32 10° NNE
Cosmos 1400 Rocket 4.1 10:16:32 10° SW 10:19:40 23° WNW 10:22:50 10° NNW
Cosmos 1626 3.0 10:16:45 10° NNW 10:19:59 29° W 10:23:11 10° SSW
CZ-3B R/B 4.0 10:12:55 10° WSW 10:20:35 26° S 10:24:50 10° SE
USA 215 3.8 10:21:19 10° NE 10:27:35 51° NW 10:33:50 10° WSW
